sat.trackr.live / text

‹ back to catalog

STARLINK-36799

NORAD 67958 · 2026-037AC

PAYLOAD ACTIVE UNKNOWN

§ Identity

Operator
Country
US
Launch date
2026-02-24
Launch site
AFETR
Launch vehicle
Mass (kg)
RCS (m²)

Purposes: comms

External: N2YO · Heavens-Above · Gunter

§ Orbital elements

Epoch: 2026-05-25T04:52:47.202240Z

Period
94.27 min
Inclination
42.9998°
Eccentricity
0.0000958
Mean motion
15.27590357 rev/d
Perigee alt
482.4 km
Apogee alt
483.7 km
Semi-major
6,861.2 km
B*
5.4885e-4
RAAN
118.4974°
Arg perigee
284.4498°
Mean anomaly
75.6248°
Rev number
1,504

§ Raw data

STARLINK-367991 67958U 26037AC  26145.20332410  .00014876  00000+0  54885-3 0  99942 67958  42.9998 118.4974 0000958 284.4498  75.6248 15.27590357 15049

JSON: /api/v1/satellites/67958 · /tle

For live sub-satellite position, see the globe view (requires WebGL).

§ Visibility from observer

Set your observer location to see the next 7 days of passes ≥ 10°. The values pass through the URL so the page stays shareable.

No JS? Fill the form by hand. The geolocation button needs JavaScript.